[ hide orbit diagram ]
For accurate long-term ephemerides, please instead use our Horizons system.This orbit viewer was implemented using two-body methods, and hence should not be used for determining accurate long-term trajectories (over several years or decades) or planetary encounter circumstances.
Orbital Elements at Epoch 2459200.5 (2020-Dec-17.0) TDB
Reference: JPL 21 (heliocentric ecliptic J2000)
Element | Value | Uncertainty (1-sigma) | Units |
e | .181534187115859 | 3.6867e-08 | |
a | 2.327013977524119 | 8.0652e-09 | au |
q | 1.904581386707036 | 8.6637e-08 | au |
i | 5.792691745075094 | 4.028e-06 | deg |
node | 96.42142919040577 | 4.239e-05 | deg |
peri | 207.9288757800796 | 4.4011e-05 | deg |
M | 34.61880078968441 | 1.0947e-05 | deg |
tp | 2459075.817232439273 (2020-Aug-14.31723244) | 3.9383e-05 | TDB |
period | 1296.572824534019 3.55 | 6.7407e-06 1.846e-08 | d yr |
n | .2776550558426072 | 1.4435e-09 | deg/d |
Q | 2.749446568341201 | 9.5293e-09 | au |
|
| | Orbit Determination Parameters
Additional Information
|
[ show covariance matrix ]
Physical Parameter Table
Parameter |
Symbol |
Value |
Units |
Sigma |
Reference |
Notes |
absolute magnitude |
H |
16.02 |
|
n/a |
E2021B10 |
|
|
74775 (1999 RB237) Discovered 1999-Sep-08 by CSS at Catalina |
Reference: 20040415/Numbers.arc | Last Updated: 2004-04-19 |
|
[ hide close-approach data ]
Close-Approach Data ...sorted by Date/Time (TDB)
|
Date/Time (TDB) |
Time Uncertainty (days_HH:MM) |
Body |
Nominal Distance (au) |
Minimum Distance (au) |
Maximum Distance (au) |
V-relative (km/s) |
V-infinity (km/s) |
JD (TDB) |
Time Uncertainty (minutes) |
Semi-major axis (km) |
Semi-minor axis (km) |
range-LOV angle (deg) |
N-sigma |
BP |
Orbit Ref. |
Reference |
Modified |
2063-Jun-29 16:53 |
< 00:01 |
Hebe |
0.0400257463653169 |
0.0400243269230634 |
0.0400271672380322 |
6.2388975222353 |
6.23889749734041 |
2474735.203226750 |
0.648333964497427 |
427.379137845363 |
31.5807483257851 |
81.451440171942 |
187455.631955708 |
T |
21 |
CATAB v2.0f-lin.ifort 2021-Feb-24 06:59:05 |
2021-Feb-24 06:59 |
2127-Aug-22 19:16 |
< 00:01 |
Juno |
0.00702905883110436 |
0.00701212152900937 |
0.0070460003577769 |
8.38448552470015 |
8.38448531827035 |
2498164.302684724 |
0.375190965668859 |
887.214889356672 |
35.7194705519744 |
-17.8629332000451 |
9094.95829932871 |
T |
21 |
CATAB v2.0f-lin.ifort 2021-Feb-24 06:59:05 |
2021-Feb-24 06:59 |
|
|